Showing default

FLOCK 4Q 1, 58270

Orbit data source: Space-Track

FLOCK 4Q 1, 58270 is a payload satellite owned by Planet (US) in SSO that was launched on Sat, 11 Nov 2023 UTC via an FALCON 9 launch vehicle from the Air Force Western Test Range (AFWTR). Payload-class satellites include a variety of spacecraft equipped with specific instruments for various scientific and technological missions. These include communications satellites like Starlink; space stations such as the ISS; scientific satellites like the Hubble; Earth observation satellites from companies like Planet Labs, Umbra, and HawkEye 360; GPS; miniature CubeSats for education and research; and military/defense satellites.

Not visible in the next 10 days
Identifier
58270, 2023-174Q
Orbit
SSO
Country
Flag of USUS
Related business
Manufacturer
Planet
Mission
Non-operational Commercial Imaging
Bus & Motor
CUBESAT 3U, Unknown motor
Mass
5.7 kg wet, 5.7 kg dry
Launch date (UTC)
2023-11-11 (3 years ago)
Launch vehicle
FALCON 9
Launch site
Air Force Western Test Range (AFWTR)
Object type
Payload
Rocket body
Debris
Shape & HBR
Box + 2 Pan, 1.0 m
Radar Cross Section
0.072 m², Medium (>0.1 m² and < 1m²)

Expand to show TLE details & history
Last TLE update: 2 days ago

TLE from 2 days ago
0 FLOCK 4Q 1
1 58270U 23174Q   26171.18561457  .02079872  43404-2  20205-2 0  9996
2 58270  97.3825 266.9001 0015098 271.2596  88.6959 16.12439930146506
Epoch: 2026-06-20T04:27Z
TLE epoch observation values (Epoch: 2026-06-20T04:27:17.098Z)
Latitude
-0.00006°
Longitude
-68.325°
Altitude
243.161 km
Speed
7.761 km/s
True Right ascension
17h 47m 36s
True Declination
0° 00' 00"
Sunlit
Object was in full shadow at epoch
Visualization orbit readout
Latitude
Unknown
Longitude
Unknown
Altitude
Unknown
Speed
Unknown
Apparent Right ascension
Unknown
Apparent Declination
Unknown
Sunlit
N/A
Visualization observer readout
Local Sidereal Time
21:42:27
Azimuth
Unknown
Elevation
Unknown
Doppler factor
Unknown
Orbital elements
Apogee altitude
246.989 km
Perigee altitude
227.014 km
Semi-major axis
6,615.138 km
Eccentricity
0.00151
Inclination
97.3825°
RAAN
266.9001°
Arg. of periapsis
271.2596°
True anomaly
88.86887°
Mean anomaly
88.6959°
Eccentric anomaly
88.78239°
Mean motion
4.03399 °/min
Orbital period
89.24 mins
BSTAR
0.0020205
Loading maneuver chart data...
Computing Atmospheric mass density...

Documentation

Showing up to 5 results
|